[[{"header":{"parameterUnit":"m.s-1","parameterCategory":1,"la1":30.2991,"la2":30.254,"lo1":-89.0895,"lo2":-89.0444,"dy":0.0017,"dx":0.0017,"nx":28,"ny":28,"refTime":"2024-12-21T03:00:00:Z","depth":0,"parameterNumber":2,"parameterNumberName":"U-component_of_WINDS"},"data":[0,0,0,0,0,0,0,0,0,0,0,0,0,0,0,0,0,0,0,0,0,0,0,0,0,0,0,0,0,0,0,0,0,0,0,0,0,0,0,0,0,0,0,0,0,0,0,0,0,0,0,0,0,0,0,0,0,0,-3.7022,-3.7022,0,-3.7061,-3.7062,-3.7062,-3.6969,-3.6966,-3.6963,-3.696,-3.6998,-3.7002,-3.7006,0,0,0,0,0,0,0,0,0,0,0,0,0,-3.6863,-3.6867,-3.7022,-3.7022,-3.7023,-3.7061,-3.7062,-3.7062,-3.6969,-3.6966,-3.6962,-3.6959,-3.6997,-3.7001,-3.7006,0,0,0,0,0,0,0,0,0,0,0,0,0,-3.692,-3.6868,-3.7022,-3.6981,-3.6978,-3.7061,-3.7062,-3.7062,-3.697,-3.6966,-3.6961,-3.6957,-3.6996,-3.7001,-3.7007,-3.713,0,0,-3.7024,-3.7026,0,0,0,0,0,0,0,0,-3.6917,-3.6926,-3.6987,-3.6984,-3.6981,-3.7006,-3.702,-3.7085,-3.6971,-3.6973,-3.696,-3.6955,-3.7004,-3.7009,-3.7026,-3.7132,-3.7133,-3.7024,-3.7028,-3.703,-3.7032,0,0,0,0,0,0,0,-3.6913,-3.6924,-3.7037,-3.6988,-3.6984,-3.696,-3.6963,-3.7032,-3.7013,-3.6973,-3.6966,-3.6972,-3.7002,-3.7021,-3.7026,-3.7134,-3.7024,-3.7029,-3.7033,-3.7035,-3.7341,-3.7345,0,0,0,0,0,0,-3.6915,-3.6921,-3.7036,-3.7039,-3.6938,-3.6967,-3.697,-3.7002,-3.7012,-3.7009,-3.6976,-3.6968,-3.7013,-3.702,-3.7027,-3.717,-3.703,-3.7035,-3.7039,-3.7336,-3.7342,-3.7347,0,0,0,0,0,0,-3.6912,-3.6926,-3.7035,-3.6978,-3.699,-3.6974,-3.7011,-3.7005,-3.7024,-3.7014,-3.701,-3.6999,-3.701,-3.7019,-3.7105,-3.717,-3.7038,-3.7043,-3.733,-3.7338,-3.7344,-3.7459,0,0,0,0,0,0,-3.6908,-3.6926,-3.6973,-3.698,-3.6994,-3.7113,-3.7015,-3.7009,-3.7034,-3.7024,-3.7035,-3.7032,-3.7007,-3.7097,-3.711,-3.7175,-3.7047,-3.7324,-3.7334,-3.7342,-3.7449,-3.7469,-3.7486,0,0,0,0,0,-3.6903,-3.7004,-3.6976,-3.699,-3.7053,-3.7117,-3.7124,-3.7094,-3.704,-3.7087,-3.708,-3.7032,-3.7161,-3.7106,-3.7121,-3.7189,-3.732,-3.7331,-3.7341,-3.7441,-3.7465,-3.7485,0,0,0,0,0,0,-3.7004,-3.7004,-3.6973,-3.708,-3.7099,-3.7101,-3.7159,-3.7121,-3.7155,-3.7144,-3.7104,-3.7107,-3.72,-3.7203,-3.7142,-3.7307,-3.7231,-3.7245,-3.7302,-3.7325,-3.7343,-3.7339,-3.7052,0,0,0,0,0,-3.7039,-3.7092,-3.7089,-3.7183,-3.7195,-3.7176,-3.7202,-3.7177,-3.7195,-3.7203,-3.7203,-3.7221,-3.7265,-3.7296,-3.7336,-3.745,-3.7449,-3.7503,-3.7522,-3.7537,-3.7549,-3.7607,-3.763,-3.7382,-3.7382,-3.7382,0,0,-3.7112,-3.7118,-3.7154,-3.7204,-3.7216,-3.727,-3.7183,-3.7245,-3.7284,-3.7212,-3.7292,-3.7293,-3.7311,-3.741,-3.7454,-3.7416,-3.7618,-3.7551,-3.7563,-3.7566,-3.762,-3.7643,-3.7664,-3.7389,-3.7388,-3.7387,0,0,-3.7271,-3.7283,-3.7361,-3.7375,-3.7395,-3.7381,-3.74,-3.7408,-3.7406,-3.7486,-3.7433,-3.7479,-3.7557,-3.7571,-3.7589,-3.7754,-3.7709,-3.7768,-3.7863,-3.792,-3.794,-3.7957,-3.8013,-3.8034,-3.778,-3.7781,-3.7781,0,-3.7358,-3.7439,-3.7406,-3.7471,-3.7494,-3.7432,-3.751,-3.7525,-3.7557,-3.7573,-3.7531,-3.7626,-3.7634,-3.7735,-3.7775,-3.7793,-3.7811,-3.7765,-3.794,-3.7957,-3.7972,-3.8025,-3.8047,-3.7787,-3.7787,-3.7786,-3.7785,0,-3.7544,-3.7601,-3.7662,-3.7694,-3.7724,-3.7796,-3.7773,-3.7807,-3.7779,-3.777,-3.7852,-3.7859,-3.7899,-3.7922,-3.7896,-3.8019,-3.7994,-3.7947,-3.7869,-3.8003,-3.8052,-3.8072,-3.7797,-3.7795,-3.7793,-3.7791,0,0,-3.7767,-3.7781,-3.7803,-3.7816,-3.7833,-3.7876,-3.7944,-3.7984,-3.8013,-3.8037,-3.8092,-3.8159,-3.8115,-3.8135,-3.811,-3.816,-3.8287,-3.8106,-3.8105,-3.8137,-3.8421,-3.8455,-3.8479,-3.8259,-3.8263,-3.8266,-3.8418,0,-3.7922,-3.804,-3.8013,-3.8128,-3.8179,-3.8121,-3.818,-3.8196,-3.819,-3.8231,-3.8223,-3.8271,-3.821,-3.8221,-3.8269,-3.8262,-3.8343,-3.8251,-3.8308,-3.831,-3.8302,-3.8505,-3.8541,-3.8684,-3.8437,-3.8441,-3.8443,0,-3.8119,-3.8151,-3.8272,-3.8279,-3.8299,-3.8353,-3.8386,-3.8428,-3.8444,-3.8436,-3.8458,-3.8423,-3.8489,-3.8413,-3.8502,-3.844,-3.8461,-3.8462,-3.8466,-3.8468,-3.8383,-3.851,-3.873,-3.875,-3.8474,-3.8471,-3.8469,0,-3.8266,-3.834,-3.8421,-3.8434,-3.8446,-3.8484,-3.8491,-3.8503,-3.8528,-3.8558,-3.8573,-3.861,-3.863,-3.8658,-3.8633,-3.8581,-3.8726,-3.8648,-3.8719,-3.8719,-3.875,-3.8748,-3.8973,-3.8769,-3.8768,-3.8768,-3.8767,0,-3.8441,-3.8517,-3.8487,-3.8537,-3.8619,-3.8586,-3.8669,-3.8668,-3.868,-3.8727,-3.868,-3.8725,-3.8691,-3.8733,-3.8715,-3.879,-3.88,-3.8793,-3.8787,-3.8796,-3.8797,-3.8808,-3.8796,-3.8774,-3.8772,-3.8771,-3.877,0,-3.8619,-3.8602,-3.8686,-3.869,-3.8693,-3.8753,-3.8756,-3.8801,-3.8792,-3.8852,-3.8865,-3.8849,-3.8896,-3.8875,-3.8925,-3.8912,-3.9008,-3.899,-3.9002,-3.8996,-3.9067,-3.906,-3.9306,-3.9336,-3.9115,-3.9117,-3.9119,0,-3.873,-3.8787,-3.8797,-3.8826,-3.8835,-3.8883,-3.8908,-3.8878,-3.8907,-3.893,-3.8972,-3.9015,-3.9047,-3.9125,-3.9118,-3.9155,-3.9135,-3.9219,-3.914,-3.9147,-3.9133,-3.9129,-3.9134,-3.9234,-3.9237,-3.9239,-3.924,0,-3.8929,-3.8917,-3.8956,-3.8993,-3.9025,-3.9052,-3.9074,-3.91,-3.9071,-3.9105,-3.9153,-3.9179,-3.9229,-3.9272,-3.9304,-3.9309,-3.927,-3.9266,-3.9283,-3.9292,-3.9296,-3.9292,-3.9042,-3.9259,-3.9258,-3.9256,-3.9255,-3.9254,-3.9074,-3.9121,-3.9136,-3.918,-3.9194,-3.9217,-3.9259,-3.9255,-3.9294,-3.9333,-3.9313,-3.9368,-3.9382,-3.9422,-3.9432,-3.9474,-3.9441,-3.9467,-3.9474,-3.948,-3.9488,-3.9292,-3.948,-3.948,-3.9479,-3.9479,-3.9478,0,-3.9268,-3.9275,-3.9316,-3.9349,-3.9384,-3.9346,-3.9368,-3.94,-3.9449,-3.9466,-3.9499,-3.9553,-3.9594,-3.959,-3.9627,-3.9662,-3.9644,-3.9672,-3.9668,-3.9669,-3.9517,-3.9497,-3.9685,-3.9685,-3.9685,-3.9685,-3.9685,-3.9685,-3.9373,-3.9449,-3.944,-3.9523,-3.9528,-3.9582,-3.9598,-3.9618,-3.9631,-3.9694,-3.9728,-3.9725,-3.9733,-3.977,-3.9806,-3.9803,-3.9818,-3.9853,-3.9843,-3.9701,-3.968,-3.966,-3.9641,-3.9857,-3.9857,-3.9991,-3.9992,-3.9993]},{"header":{"parameterUnit":"m.s-1","parameterCategory":1,"la1":30.2991,"la2":30.254,"lo1":-89.0895,"lo2":-89.0444,"dy":0.0017,"dx":0.0017,"nx":28,"ny":28,"refTime":"2024-12-21T03:00:00:Z","depth":0,"parameterNumber":3,"parameterNumberName":"V-component_of_WINDS"},"data":[0,0,0,0,0,0,0,0,0,0,0,0,0,0,0,0,0,0,0,0,0,0,0,0,0,0,0,0,0,0,0,0,0,0,0,0,0,0,0,0,0,0,0,0,0,0,0,0,0,0,0,0,0,0,0,0,0,0,-1.619,-1.6191,0,-1.6239,-1.624,-1.624,-1.6247,-1.6246,-1.6246,-1.6245,-1.6294,-1.6296,-1.6298,0,0,0,0,0,0,0,0,0,0,0,0,0,-1.6101,-1.6102,-1.619,-1.6191,-1.6191,-1.6239,-1.624,-1.624,-1.6247,-1.6246,-1.6246,-1.6245,-1.6294,-1.6296,-1.6298,0,0,0,0,0,0,0,0,0,0,0,0,0,-1.6144,-1.6103,-1.619,-1.62,-1.6202,-1.6239,-1.624,-1.624,-1.6247,-1.6246,-1.6245,-1.6245,-1.6293,-1.6295,-1.6298,-1.6328,0,0,-1.6306,-1.6307,0,0,0,0,0,0,0,0,-1.6141,-1.6147,-1.6198,-1.62,-1.6201,-1.6236,-1.6226,-1.627,-1.6247,-1.623,-1.6245,-1.6244,-1.6275,-1.6279,-1.629,-1.633,-1.6332,-1.6306,-1.6308,-1.6309,-1.631,0,0,0,0,0,0,0,-1.6138,-1.6145,-1.6209,-1.6199,-1.6201,-1.6202,-1.6207,-1.6234,-1.6256,-1.6231,-1.6232,-1.6237,-1.6276,-1.6287,-1.6291,-1.6333,-1.6306,-1.6308,-1.631,-1.6311,-1.6398,-1.6399,0,0,0,0,0,0,-1.6134,-1.6142,-1.6208,-1.6211,-1.6169,-1.6204,-1.621,-1.6226,-1.6255,-1.6259,-1.6238,-1.6238,-1.6283,-1.6288,-1.6293,-1.6329,-1.6309,-1.6311,-1.6313,-1.6397,-1.6398,-1.6399,0,0,0,0,0,0,-1.6132,-1.6139,-1.6206,-1.6177,-1.6185,-1.6206,-1.6224,-1.6227,-1.6238,-1.6261,-1.6264,-1.6246,-1.6283,-1.6289,-1.6319,-1.633,-1.6312,-1.6315,-1.6397,-1.6398,-1.6399,-1.6401,0,0,0,0,0,0,-1.6129,-1.6139,-1.6151,-1.6177,-1.6187,-1.6232,-1.6225,-1.6228,-1.6243,-1.6243,-1.6269,-1.6273,-1.6283,-1.6315,-1.6321,-1.6334,-1.6317,-1.6396,-1.6397,-1.6398,-1.64,-1.6402,-1.6404,0,0,0,0,0,-1.6126,-1.615,-1.6151,-1.6159,-1.6203,-1.6232,-1.6238,-1.625,-1.6244,-1.6256,-1.627,-1.6272,-1.6328,-1.6318,-1.6325,-1.6338,-1.6395,-1.6397,-1.6398,-1.6399,-1.6401,-1.6404,0,0,0,0,0,0,-1.6124,-1.6153,-1.6156,-1.6189,-1.6208,-1.6233,-1.6249,-1.6252,-1.6273,-1.6272,-1.6285,-1.6291,-1.632,-1.6332,-1.632,-1.6368,-1.6361,-1.6364,-1.6359,-1.6361,-1.6363,-1.6359,-1.6319,0,0,0,0,0,-1.6127,-1.615,-1.6174,-1.6201,-1.621,-1.6228,-1.6241,-1.6248,-1.6269,-1.6277,-1.6293,-1.6313,-1.6335,-1.6349,-1.637,-1.6402,-1.6407,-1.6414,-1.6416,-1.6418,-1.642,-1.6436,-1.6439,-1.6405,-1.6405,-1.6405,0,0,-1.6135,-1.6153,-1.6167,-1.6201,-1.6217,-1.6238,-1.6235,-1.6258,-1.6274,-1.6281,-1.6309,-1.6322,-1.6344,-1.6374,-1.6388,-1.6385,-1.6431,-1.642,-1.6421,-1.6423,-1.6438,-1.6441,-1.6444,-1.6406,-1.6406,-1.6406,0,0,-1.6159,-1.6176,-1.62,-1.6215,-1.6239,-1.6251,-1.6256,-1.6281,-1.6289,-1.6318,-1.6323,-1.6342,-1.638,-1.6395,-1.6408,-1.6437,-1.6439,-1.6443,-1.6453,-1.6469,-1.6471,-1.6474,-1.6483,-1.6486,-1.6446,-1.6446,-1.6446,0,-1.6165,-1.6199,-1.6211,-1.6234,-1.6248,-1.6255,-1.6278,-1.6293,-1.6322,-1.6332,-1.6328,-1.6375,-1.639,-1.6423,-1.643,-1.6441,-1.6447,-1.644,-1.647,-1.6473,-1.6475,-1.6484,-1.6487,-1.6446,-1.6446,-1.6446,-1.6446,0,-1.6204,-1.6228,-1.6244,-1.6272,-1.6288,-1.6311,-1.6326,-1.634,-1.6346,-1.6357,-1.6386,-1.6405,-1.6429,-1.6438,-1.6444,-1.6471,-1.6469,-1.6467,-1.646,-1.6478,-1.6487,-1.649,-1.6447,-1.6446,-1.6446,-1.6446,0,0,-1.6229,-1.6263,-1.6269,-1.6281,-1.6307,-1.6325,-1.6348,-1.6372,-1.6384,-1.6404,-1.6422,-1.6454,-1.6452,-1.6467,-1.6474,-1.6488,-1.6508,-1.6485,-1.6485,-1.6487,-1.6538,-1.6538,-1.6542,-1.651,-1.651,-1.6511,-1.6536,0,-1.6256,-1.6297,-1.6308,-1.6343,-1.6363,-1.6369,-1.6389,-1.6407,-1.6418,-1.6436,-1.6448,-1.647,-1.6467,-1.6475,-1.6489,-1.6502,-1.6518,-1.6501,-1.6526,-1.6527,-1.652,-1.6546,-1.6547,-1.657,-1.6539,-1.654,-1.654,0,-1.6293,-1.6313,-1.635,-1.6372,-1.6381,-1.6399,-1.6421,-1.6439,-1.6459,-1.6466,-1.6481,-1.6487,-1.651,-1.6502,-1.6533,-1.6521,-1.6532,-1.654,-1.6541,-1.6543,-1.6534,-1.6548,-1.6577,-1.658,-1.6546,-1.6545,-1.6545,0,-1.6306,-1.6342,-1.6368,-1.6379,-1.6406,-1.6418,-1.643,-1.6449,-1.6462,-1.6481,-1.649,-1.6512,-1.6524,-1.654,-1.6551,-1.6545,-1.6581,-1.6574,-1.6586,-1.6586,-1.6593,-1.6593,-1.6623,-1.6602,-1.6602,-1.6602,-1.6602,0,-1.6334,-1.6356,-1.6374,-1.6391,-1.6415,-1.6427,-1.645,-1.6462,-1.6479,-1.6496,-1.6503,-1.6519,-1.6534,-1.6552,-1.6561,-1.6584,-1.659,-1.6595,-1.6597,-1.6594,-1.6593,-1.6601,-1.66,-1.6603,-1.6602,-1.6602,-1.6602,0,-1.6352,-1.6366,-1.6395,-1.6418,-1.6424,-1.6441,-1.646,-1.6475,-1.6486,-1.6508,-1.6514,-1.6531,-1.6553,-1.6565,-1.6593,-1.6599,-1.6624,-1.6626,-1.6618,-1.6619,-1.663,-1.6628,-1.6666,-1.6671,-1.6647,-1.6647,-1.6647,0,-1.6369,-1.6386,-1.641,-1.6423,-1.6434,-1.6455,-1.6468,-1.648,-1.6494,-1.6517,-1.6529,-1.6551,-1.6569,-1.6603,-1.6617,-1.6638,-1.664,-1.6651,-1.6643,-1.6639,-1.6638,-1.6637,-1.6638,-1.6653,-1.6653,-1.6653,-1.6653,0,-1.6397,-1.6402,-1.6422,-1.6443,-1.6459,-1.6476,-1.6494,-1.6503,-1.6518,-1.6533,-1.6555,-1.6569,-1.6596,-1.6618,-1.6639,-1.6651,-1.6654,-1.6656,-1.6659,-1.6656,-1.665,-1.6652,-1.6621,-1.6655,-1.6655,-1.6654,-1.6654,-1.6654,-1.6414,-1.6429,-1.6448,-1.6469,-1.6483,-1.6499,-1.6514,-1.6526,-1.6545,-1.6568,-1.6574,-1.6597,-1.6615,-1.6644,-1.6656,-1.6673,-1.6672,-1.6677,-1.6678,-1.6679,-1.6679,-1.6648,-1.6678,-1.6678,-1.6677,-1.6677,-1.6677,0,-1.6441,-1.6453,-1.6473,-1.6496,-1.6513,-1.6515,-1.6533,-1.6547,-1.6567,-1.6583,-1.6601,-1.6625,-1.6646,-1.6661,-1.6682,-1.6693,-1.6695,-1.6698,-1.6696,-1.6699,-1.668,-1.6674,-1.6696,-1.6696,-1.6696,-1.6696,-1.6696,-1.6696,-1.6457,-1.6481,-1.6489,-1.652,-1.6532,-1.6555,-1.6565,-1.6579,-1.6593,-1.662,-1.6637,-1.6647,-1.6663,-1.6684,-1.6703,-1.6707,-1.6713,-1.6716,-1.672,-1.6702,-1.67,-1.6698,-1.6693,-1.6718,-1.6718,-1.6737,-1.6737,-1.6737]}]]